Tracking 29892 objects as of 21-Nov-2024
HD Live streaming from Space Station
objects crossing your sky now

ONEWEB-0336

Track ONEWEB-0336 now!
10-day predictions
ONEWEB-0336 is classified as:


NORAD ID: 49202
Int'l Code: 2021-083S
Perigee: 1,215.5 km
Apogee: 1,218.3 km
Inclination: 87.9 °
Period: 109.6 minutes
Semi major axis: 7587 km
RCS: Unknown
Launch date: September 14, 2021
Source: United Kingdom (UK)
Launch site: TYURATAM MISSILE AND SPACE COMPLEX (TTMTR)
Your satellite tracking list
Your tracking list is empty




NASA's NSSDC Master Catalog

Two Line Element Set (TLE):
1 49202U 21083S   24325.25974401 -.00000232  00000-0 -67116-3 0  9992
2 49202  87.8926  74.4019 0001795 102.0999 258.0332 13.13470945155579
Source of the keplerian elements: AFSPC